Location: Asarope
(8.2500°N, 4.4833°E)
Time: 22:50:09
(UTC+00:00)

Centaur D-1A AC-31 - Pass Details

Date: 07 June 2020
Orbit: 630 x 36311 km, 27.3° (Epoch: 10 July)

Event Time Altitude Azimuth Distance (km) Brightness Sun altitude
Rises 04:27:35 0° 294° (WNW) 11,604 7.1 -13.4°
Reaches altitude 10° 04:41:08 10° 303° (WNW) 6,560 5.9 -10.4°
Maximum altitude 04:53:01 32° 4° (N) 1,867 3.8 -7.7°
Drops below altitude 10° 04:57:06 10° 71° (ENE) 2,236 5.7 -6.8°
Sets 04:58:54 0° 84° (E) 2,951 6.2 -6.4°
